Location: Westminster
(33.3626°N, 96.4619°W)
Time: 19:55:31
(UTC+00:00)

CORIOLIS - Pass Details

Date: 03 December 2021
Orbit: 818 x 839 km, 98.7° (Epoch: 26 January)

Event Time Altitude Azimuth Distance (km) Brightness Sun altitude
Rises 12:42:26 0° 14° (NNE) 3,396 7.3 -6.8°
Reaches altitude 10° 12:44:48 10° 16° (NNE) 2,458 6.6 -6.3°
Maximum altitude 12:50:16 78° 103° (ESE) 859 4.5 -5.3°
Drops below altitude 10° 12:55:40 10° 189° (S) 2,437 6.8 -4.2°
Sets 12:58:01 0° 191° (S) 3,365 7.5 -3.8°
